Other Public Products
Issued by NWS Charleston, SC

Current Version | Previous Version | Graphics & Text | Print | Product List | Glossary On
Versions: 1 2 3 4 5 6 7 8 9 10 11 12 13 14 15 16 17 18 19 20 21 22 23 24 25 26 27 28 29 30 31 32 33 34 35 36 37 38 39 40 41 42 43 44 45 46 47 48 49 50
958
FPUS82 KCHS 241343
OPUCHS

TEST...KCHS/KSAV Gateway Observations...TEST
National Weather Service Charleston SC
900 AM EDT SUN SEP 24 2017

NOTE: "fair" indicates few or no clouds below 12,000 feet with no
significant weather and/or obstructions to visibility.

SCZ050-WAZ558-NCZ071-TXZ119-213-PAZ071-DCZ001-FLZ074-172-MI076-
NYZ176-178-MAZ016-IL014-TNZ027-NJZ106-GAZ044-MD014-241400-

...Gateway Observations for Charleston International...

CITY           SKY/WX    TMP DP  RH WIND       PRES   REMARKS
Chas Airport   MOSUNNY   73  70  90 NE10      30.01F
Seattle        CLEAR     51  47  86 CALM      30.15S
Charlotte      PTSUNNY   71  64  78 N8        30.12R
Dallas DFW     MOCLDY    74  70  87 S6        29.90R
Dallas Love    MOCLDY    76  68  76 SE10      29.91R
Philladelphia  SUNNY     77  63  61 VRB7      30.10R
Wash National  MOSUNNY   74  62  66 N7        30.11S
Baltimore      SUNNY     76  64  66 N3        30.09S
Miami          PTSUNNY   81  78  91 NE6       29.87R
Detroit        MOSUNNY   72  63  73 CALM      30.18R
Newark         SUNNY     76  60  57 NE5       30.09R
Laguardia      SUNNY     77  62  59 N6        30.07S
J F K          SUNNY     78  62  57 N9        30.08S
Boston Logan   MOSUNNY   72  63  73 NW3       30.07S
Ft. Lauderdale TSTM      78  77  96 SE16      29.87R FOG
Chicago O`Hare SUNNY     74  65  73 S5        30.09R
Chicago Midway SUNNY     75  65  70 S6        30.09S
Houston Bush   PTCLDY    73  72  96 NE6       29.89R
Houston Hobby  PTCLDY    77  73  87 E3        29.88R
Nashville      MOSUNNY   71  69  93 CALM      30.08R
Atlanta        PTSUNNY   72  64  76 E9        30.09R

$$

GAZ044-118-TXZ119-213-NCZ071-DCZ001-MDZ014-506-PAZ021-071-NJZ106-
NYZ176-178-MAZ106-OHZ011-021-055-MIZ076-KYZ091-ILZ014-INZ047-
MNZ060-ONZ431-241400-

...Gateway Observations for Savannah International...

CITY           SKY/WX    TMP DP  RH WIND       PRES   REMARKS
Savannah Arpt  MOSUNNY   73  70  90 NE10      30.01S
Atlanta        PTSUNNY   72  64  76 E9        30.09R
Charlotte      PTSUNNY   71  64  78 N8        30.12R
Dallas DFW     MOCLDY    74  70  87 S6        29.90R
Houston Bush   PTCLDY    73  72  96 NE6       29.89R
Wash National  MOSUNNY   74  62  66 N7        30.11S
Wash Dulles    MOSUNNY   69  62  78 NW5       30.13R
Baltimore      SUNNY     76  64  66 N3        30.09S
Philadelphia   SUNNY     77  63  61 VRB7      30.10R
Newark         SUNNY     76  60  57 NE5       30.09R
Laguardia      SUNNY     77  62  59 N6        30.07S
J F K          SUNNY     78  62  57 N9        30.08S
Boston         MOSUNNY   72  63  73 NW3       30.07S
Pittsburg      SUNNY     66  61  84 CALM      30.19S
Akron          SUNNY     74  62  66 SE7       30.19F
Cleveland      SUNNY     75  63  66 CALM      30.19S
Cincinnati     MOSUNNY   70  63  78 E8        30.12R
Columbus       SUNNY     67  61  79 CALM      30.15S
Detroit        MOSUNNY   72  63  73 CALM      30.18R
Chicago O`Hare SUNNY     74  65  73 S5        30.09R
Minneapolis    PTCLDY    71  64  78 SE6       29.95R
Indianapolis   SUNNY     72  62  71 E5        30.11S
Toronto Canada SUNNY     77  66  69 CALM      30.16R

$$




USA.gov is the U.S. government's official web portal to all federal, state and local government web resources and services.